| time (UTC) | temp F | wind direction | speed MPH | gust MPH | rain 1hr in | rain 24hr in | rain mn in | humidity % | barometer mb |
| 20260510022208 | 52 | 311 | 0.0 | 0.0 | 0.00 | 0.04 | 0.04 | 88 | 1007.8 |
| 20260510021703 | 51 | 310 | 0.0 | 1.0 | 0.00 | 0.04 | 0.04 | 91 | 1007.9 |
| 20260510021201 | 50 | 310 | 1.0 | 2.0 | 0.00 | 0.04 | 0.04 | 92 | 1007.6 |
| 20260510020655 | 50 | 190 | 0.0 | 0.0 | 0.00 | 0.04 | 0.04 | 91 | 1007.6 |
| 20260510020151 | 50 | 269 | 0.0 | 0.0 | 0.00 | 0.04 | 0.04 | 90 | 1007.4 |
| 20260510015647 | 51 | 269 | 0.0 | 0.0 | 0.00 | 0.04 | 0.04 | 89 | 1007.4 |
| 20260510015144 | 51 | 269 | 0.0 | 0.0 | 0.00 | 0.04 | 0.04 | 91 | 1007.3 |
| 20260510014639 | 51 | 269 | 0.0 | 0.0 | 0.00 | 0.04 | 0.04 | 91 | 1007.2 |
| 20260510014137 | 51 | 269 | 0.0 | 0.0 | 0.00 | 0.04 | 0.04 | 90 | 1007.4 |
| 20260510013636 | 51 | 268 | 0.0 | 1.0 | 0.00 | 0.04 | 0.04 | 89 | 1007.3 |
| 20260510013132 | 52 | 268 | 0.0 | 1.0 | 0.00 | 0.04 | 0.04 | 87 | 1007.1 |
| 20260510012632 | 53 | 268 | 0.0 | 0.0 | 0.00 | 0.04 | 0.04 | 86 | 1007.2 |
| 20260510012128 | 53 | 268 | 0.0 | 0.0 | 0.00 | 0.04 | 0.04 | 85 | 1007.0 |
| 20260510011623 | 54 | 268 | 0.0 | 0.0 | 0.00 | 0.04 | 0.04 | 84 | 1007.0 |
| 20260510011119 | 54 | 268 | 0.0 | 0.0 | 0.00 | 0.04 | 0.04 | 83 | 1007.1 |
| 20260510010615 | 54 | 268 | 0.0 | 0.0 | 0.00 | 0.04 | 0.04 | 82 | 1007.1 |
| 20260510010113 | 55 | 268 | 0.0 | 1.0 | 0.00 | 0.04 | 0.04 | 82 | 1006.9 |
| 20260510005608 | 56 | 268 | 0.0 | 1.0 | 0.00 | 0.04 | 0.04 | 79 | 1007.0 |
| 20260510005106 | 57 | 268 | 1.0 | 1.0 | 0.00 | 0.04 | 0.04 | 77 | 1007.0 |
| 20260510004604 | 58 | 268 | 0.0 | 4.0 | 0.00 | 0.04 | 0.04 | 74 | 1006.7 |
| 20260510004102 | 58 | 282 | 0.0 | 1.0 | 0.00 | 0.04 | 0.04 | 75 | 1006.6 |
| 20260510003558 | 59 | 260 | 1.0 | 2.0 | 0.00 | 0.04 | 0.04 | 73 | 1006.4 |
| 20260510003054 | 59 | 288 | 1.0 | 1.0 | 0.00 | 0.04 | 0.04 | 72 | 1006.5 |
| 20260510002554 | 59 | 251 | 3.0 | 4.0 | 0.00 | 0.04 | 0.04 | 71 | 1006.5 |
| 20260510002051 | 59 | 258 | 3.0 | 3.0 | 0.00 | 0.04 | 0.04 | 72 | 1006.5 |
| 20260510001548 | 60 | 119 | 0.0 | 3.0 | 0.00 | 0.04 | 0.04 | 72 | 1006.5 |
| 20260510001047 | 60 | 159 | 0.0 | 3.0 | 0.00 | 0.04 | 0.04 | 70 | 1006.5 |
| 20260510000542 | 60 | 251 | 1.0 | 1.0 | 0.00 | 0.04 | 0.04 | 70 | 1006.4 |
| 20260510000039 | 60 | 191 | 0.0 | 2.0 | 0.00 | 0.04 | 0.04 | 70 | 1006.6 |
| 20260509235535 | 61 | 168 | 1.0 | 1.0 | 0.00 | 0.04 | 0.04 | 70 | 1006.2 |
| 20260509235032 | 61 | 172 | 2.0 | 3.0 | 0.00 | 0.04 | 0.04 | 68 | 1006.0 |
| 20260509234528 | 61 | 142 | 4.0 | 6.0 | 0.00 | 0.04 | 0.04 | 67 | 1006.1 |
| 20260509234026 | 62 | 184 | 1.0 | 4.0 | 0.00 | 0.04 | 0.04 | 66 | 1005.9 |
| 20260509233523 | 63 | 179 | 3.0 | 4.0 | 0.00 | 0.04 | 0.04 | 64 | 1006.2 |
| 20260509233021 | 63 | 190 | 0.0 | 2.0 | 0.00 | 0.04 | 0.04 | 65 | 1006.0 |
| 20260509232517 | 64 | 228 | 0.0 | 2.0 | 0.00 | 0.04 | 0.04 | 63 | 1005.9 |
| 20260509232014 | 64 | 203 | 3.0 | 6.0 | 0.00 | 0.04 | 0.04 | 62 | 1006.0 |
| 20260509231510 | 63 | 265 | 1.0 | 6.0 | 0.00 | 0.04 | 0.04 | 64 | 1005.9 |
| 20260509231008 | 63 | 307 | 4.0 | 6.0 | 0.00 | 0.04 | 0.04 | 62 | 1006.0 |
| 20260509230505 | 63 | 354 | 0.0 | 7.0 | 0.00 | 0.04 | 0.04 | 64 | 1006.0 |
| 20260509230001 | 64 | 262 | 2.0 | 4.0 | 0.00 | 0.04 | 0.04 | 61 | 1006.4 |
| 20260509225457 | 64 | 181 | 2.0 | 7.0 | 0.00 | 0.04 | 0.04 | 61 | 1006.2 |
| 20260509224953 | 63 | 284 | 2.0 | 6.0 | 0.00 | 0.04 | 0.04 | 61 | 1006.1 |
| 20260509224449 | 64 | 244 | 6.0 | 8.0 | 0.00 | 0.04 | 0.04 | 60 | 1006.2 |
| 20260509223946 | 63 | 215 | 2.0 | 6.0 | 0.00 | 0.04 | 0.04 | 62 | 1006.2 |
| 20260509223442 | 63 | 171 | 4.0 | 8.0 | 0.00 | 0.04 | 0.04 | 64 | 1006.4 |
| 20260509222940 | 63 | 203 | 4.0 | 8.0 | 0.00 | 0.04 | 0.04 | 62 | 1006.2 |
| 20260509222435 | 63 | 198 | 2.0 | 7.0 | 0.00 | 0.04 | 0.04 | 65 | 1006.6 |
| 20260509221931 | 64 | 202 | 4.0 | 7.0 | 0.00 | 0.04 | 0.04 | 63 | 1006.4 |
| 20260509221428 | 64 | 261 | 4.0 | 7.0 | 0.00 | 0.04 | 0.04 | 62 | 1006.2 |
| 20260509220924 | 64 | 224 | 6.0 | 8.0 | 0.00 | 0.04 | 0.04 | 58 | 1006.4 |
| 20260509220420 | 63 | 299 | 1.0 | 3.0 | 0.00 | 0.04 | 0.04 | 64 | 1006.5 |
| 20260509215916 | 63 | 263 | 6.0 | 8.0 | 0.00 | 0.04 | 0.04 | 62 | 1006.6 |
| 20260509215412 | 63 | 316 | 0.0 | 3.0 | 0.00 | 0.04 | 0.04 | 64 | 1006.5 |
| 20260509214909 | 64 | 186 | 4.0 | 7.0 | 0.00 | 0.04 | 0.04 | 63 | 1006.6 |
| 20260509214406 | 64 | 256 | 6.0 | 13.0 | 0.00 | 0.04 | 0.04 | 63 | 1006.4 |
| 20260509213904 | 63 | 262 | 1.0 | 2.0 | 0.00 | 0.04 | 0.04 | 63 | 1006.2 |
| 20260509213359 | 63 | 262 | 1.0 | 2.0 | 0.00 | 0.04 | 0.04 | 63 | 1006.2 |
| 20260509212857 | 63 | 202 | 2.0 | 10.0 | 0.00 | 0.04 | 0.04 | 62 | 1006.2 |
| 20260509212354 | 64 | 315 | 5.0 | 8.0 | 0.00 | 0.04 | 0.04 | 61 | 1006.5 |
| 20260509211850 | 64 | 152 | 2.0 | 6.0 | 0.00 | 0.04 | 0.04 | 62 | 1006.5 |
| 20260509211346 | 65 | 173 | 2.0 | 6.0 | 0.00 | 0.04 | 0.04 | 60 | 1006.5 |
| 20260509210842 | 64 | 255 | 2.0 | 3.0 | 0.00 | 0.04 | 0.04 | 62 | 1006.2 |
| 20260509210340 | 64 | 125 | 4.0 | 7.0 | 0.00 | 0.04 | 0.04 | 62 | 1006.5 |
| 20260509205840 | 63 | 148 | 4.0 | 9.0 | 0.00 | 0.04 | 0.04 | 64 | 1006.2 |
| 20260509205334 | 62 | 235 | 3.0 | 11.0 | 0.00 | 0.04 | 0.04 | 64 | 1006.5 |
| 20260509204831 | 63 | 97 | 2.0 | 2.0 | 0.00 | 0.04 | 0.04 | 63 | 1006.6 |
| 20260509204328 | 63 | 97 | 2.0 | 2.0 | 0.00 | 0.04 | 0.04 | 63 | 1006.6 |
| 20260509203824 | 62 | 154 | 3.0 | 6.0 | 0.00 | 0.04 | 0.04 | 64 | 1006.6 |
| 20260509203321 | 62 | 298 | 6.0 | 7.0 | 0.00 | 0.04 | 0.04 | 65 | 1006.4 |
| 20260509202817 | 0 | 0.0 | 0.0 | 0.00 | 0.04 | 0.04 | 1006.4 | ||
| 20260509202314 | 0 | 0.0 | 0.0 | 0.00 | 0.04 | 0.04 | 1006.2 | ||
| 20260509201813 | 64 | 175 | 2.0 | 3.0 | 0.00 | 0.04 | 0.04 | 62 | 1006.6 |
| 20260509201310 | 64 | 175 | 2.0 | 3.0 | 0.00 | 0.04 | 0.04 | 62 | 1006.5 |
| 20260509200806 | 64 | 240 | 4.0 | 6.0 | 0.00 | 0.04 | 0.04 | 62 | 1006.6 |
| 20260509200302 | 64 | 228 | 6.0 | 9.0 | 0.00 | 0.04 | 0.04 | 64 | 1006.7 |
| 20260509195759 | 63 | 260 | 6.0 | 8.0 | 0.00 | 0.04 | 0.04 | 64 | 1006.6 |
| 20260509195254 | 63 | 263 | 3.0 | 7.0 | 0.00 | 0.04 | 0.04 | 62 | 1006.7 |
| 20260509194753 | 64 | 162 | 2.0 | 4.0 | 0.00 | 0.04 | 0.04 | 61 | 1006.5 |
| 20260509194249 | 62 | 273 | 3.0 | 9.0 | 0.00 | 0.04 | 0.04 | 65 | 1006.6 |
| 20260509193747 | 62 | 260 | 2.0 | 4.0 | 0.00 | 0.04 | 0.04 | 67 | 1006.8 |
| 20260509193247 | 62 | 150 | 2.0 | 3.0 | 0.00 | 0.04 | 0.04 | 66 | 1006.7 |
| 20260509192743 | 62 | 266 | 4.0 | 6.0 | 0.00 | 0.04 | 0.04 | 67 | 1006.6 |
| 20260509192243 | 62 | 234 | 2.0 | 4.0 | 0.00 | 0.04 | 0.04 | 63 | 1006.8 |
| 20260509191739 | 62 | 244 | 4.0 | 6.0 | 0.00 | 0.04 | 0.04 | 65 | 1006.8 |
| 20260509191236 | 62 | 255 | 2.0 | 3.0 | 0.00 | 0.04 | 0.04 | 67 | 1006.8 |
| 20260509190732 | 61 | 81 | 3.0 | 8.0 | 0.00 | 0.04 | 0.04 | 67 | 1006.9 |
| 20260509190229 | 61 | 340 | 5.0 | 9.0 | 0.00 | 0.04 | 0.04 | 68 | 1006.7 |
| 20260509185726 | 62 | 305 | 2.0 | 8.0 | 0.00 | 0.04 | 0.04 | 64 | 1006.7 |
| 20260509185223 | 61 | 252 | 2.0 | 6.0 | 0.00 | 0.04 | 0.04 | 63 | 1006.6 |
| 20260509184720 | 62 | 210 | 1.0 | 4.0 | 0.00 | 0.04 | 0.04 | 63 | 1006.5 |
| 20260509184217 | 62 | 256 | 2.0 | 6.0 | 0.00 | 0.04 | 0.04 | 63 | 1006.4 |
| 20260509183713 | 62 | 246 | 2.0 | 11.0 | 0.00 | 0.04 | 0.04 | 68 | 1006.5 |
| 20260509183209 | 62 | 254 | 2.0 | 4.0 | 0.00 | 0.04 | 0.04 | 61 | 1006.6 |
| 20260509182704 | 62 | 258 | 1.0 | 6.0 | 0.00 | 0.04 | 0.04 | 66 | 1006.6 |
| 20260509182202 | 61 | 294 | 2.0 | 4.0 | 0.00 | 0.04 | 0.04 | 64 | 1006.6 |
| 20260509181700 | 61 | 241 | 1.0 | 6.0 | 0.00 | 0.04 | 0.04 | 63 | 1006.6 |
| 20260509181157 | 60 | 219 | 1.0 | 3.0 | 0.00 | 0.04 | 0.04 | 64 | 1006.5 |
| 20260509180654 | 59 | 157 | 3.0 | 4.0 | 0.00 | 0.04 | 0.04 | 65 | 1006.5 |
| 20260509180150 | 59 | 343 | 1.0 | 2.0 | 0.00 | 0.04 | 0.04 | 67 | 1006.9 |
| 20260509175646 | 59 | 262 | 1.0 | 1.0 | 0.00 | 0.04 | 0.04 | 66 | 1006.7 |
| 20260509175143 | 59 | 160 | 2.0 | 3.0 | 0.00 | 0.04 | 0.04 | 65 | 1006.8 |
| 20260509174639 | 59 | 273 | 2.0 | 4.0 | 0.00 | 0.04 | 0.04 | 66 | 1006.6 |
| 20260509174134 | 59 | 260 | 1.0 | 3.0 | 0.00 | 0.04 | 0.04 | 70 | 1006.7 |
| 20260509173630 | 58 | 157 | 2.0 | 2.0 | 0.00 | 0.04 | 0.04 | 68 | 1006.8 |
| 20260509173126 | 59 | 135 | 1.0 | 7.0 | 0.00 | 0.04 | 0.04 | 66 | 1006.9 |
| 20260509172623 | 59 | 181 | 3.0 | 7.0 | 0.00 | 0.04 | 0.04 | 70 | 1006.9 |
| 20260509172119 | 60 | 280 | 4.0 | 4.0 | 0.00 | 0.04 | 0.04 | 69 | 1007.0 |
| 20260509171615 | 59 | 240 | 0.0 | 2.0 | 0.00 | 0.04 | 0.04 | 74 | 1006.8 |
| 20260509171111 | 59 | 153 | 1.0 | 3.0 | 0.00 | 0.04 | 0.04 | 72 | 1006.9 |
| 20260509170607 | 59 | 204 | 0.0 | 7.0 | 0.00 | 0.04 | 0.04 | 71 | 1006.8 |
| 20260509170104 | 58 | 127 | 2.0 | 3.0 | 0.00 | 0.04 | 0.04 | 73 | 1006.9 |
| 20260509165602 | 58 | 245 | 1.0 | 4.0 | 0.00 | 0.04 | 0.04 | 70 | 1006.6 |
| 20260509165058 | 58 | 171 | 2.0 | 3.0 | 0.00 | 0.04 | 0.04 | 72 | 1006.8 |
| 20260509164554 | 58 | 104 | 3.0 | 7.0 | 0.00 | 0.04 | 0.04 | 74 | 1006.9 |
| 20260509164050 | 58 | 166 | 2.0 | 3.0 | 0.00 | 0.04 | 0.04 | 78 | 1006.7 |
| 20260509163548 | 58 | 120 | 2.0 | 3.0 | 0.00 | 0.04 | 0.04 | 79 | 1006.8 |
| 20260509163043 | 58 | 167 | 1.0 | 1.0 | 0.00 | 0.04 | 0.04 | 76 | 1006.8 |
| 20260509162540 | 58 | 225 | 0.0 | 0.0 | 0.00 | 0.04 | 0.04 | 77 | 1007.0 |
| 20260509162036 | 57 | 245 | 0.0 | 1.0 | 0.00 | 0.04 | 0.04 | 78 | 1006.9 |
| 20260509161533 | 57 | 98 | 0.0 | 2.0 | 0.00 | 0.04 | 0.04 | 81 | 1007.2 |
| 20260509161028 | 56 | 166 | 0.0 | 1.0 | 0.00 | 0.04 | 0.04 | 81 | 1007.3 |
| 20260509160524 | 56 | 92 | 0.0 | 1.0 | 0.00 | 0.04 | 0.04 | 82 | 1007.2 |
| 20260509160019 | 56 | 139 | 0.0 | 3.0 | 0.00 | 0.04 | 0.04 | 83 | 1007.2 |
| 20260509155515 | 56 | 149 | 3.0 | 6.0 | 0.00 | 0.04 | 0.04 | 82 | 1007.3 |
| 20260509155012 | 56 | 146 | 4.0 | 6.0 | 0.00 | 0.04 | 0.04 | 82 | 1007.3 |
| 20260509154508 | 57 | 148 | 0.0 | 3.0 | 0.00 | 0.04 | 0.04 | 85 | 1007.2 |
| 20260509154006 | 56 | 185 | 1.0 | 2.0 | 0.00 | 0.04 | 0.04 | 86 | 1007.5 |
| 20260509153503 | 55 | 165 | 1.0 | 2.0 | 0.00 | 0.04 | 0.04 | 85 | 1007.4 |
| 20260509152959 | 55 | 182 | 1.0 | 2.0 | 0.00 | 0.04 | 0.04 | 85 | 1007.5 |
| 20260509152455 | 55 | 182 | 1.0 | 1.0 | 0.00 | 0.04 | 0.04 | 87 | 1007.5 |
| 20260509151952 | 54 | 225 | 1.0 | 2.0 | 0.00 | 0.04 | 0.04 | 87 | 1007.5 |
| 20260509151448 | 54 | 185 | 2.0 | 2.0 | 0.00 | 0.04 | 0.04 | 89 | 1007.6 |
| 20260509150947 | 54 | 240 | 1.0 | 3.0 | 0.00 | 0.04 | 0.04 | 87 | 1007.5 |
| 20260509150443 | 54 | 185 | 2.0 | 2.0 | 0.00 | 0.04 | 0.04 | 88 | 1007.6 |
| 20260509145943 | 54 | 142 | 0.0 | 3.0 | 0.00 | 0.04 | 0.04 | 89 | 1007.4 |
| 20260509145442 | 53 | 171 | 1.0 | 3.0 | 0.00 | 0.04 | 0.04 | 89 | 1007.7 |
| 20260509144938 | 53 | 143 | 1.0 | 4.0 | 0.00 | 0.04 | 0.04 | 91 | 1007.5 |
| 20260509144435 | 53 | 183 | 1.0 | 2.0 | 0.00 | 0.04 | 0.04 | 91 | 1007.5 |
| 20260509143932 | 53 | 197 | 0.0 | 2.0 | 0.00 | 0.04 | 0.04 | 91 | 1007.6 |
| 20260509143429 | 52 | 203 | 1.0 | 3.0 | 0.00 | 0.04 | 0.04 | 92 | 1007.4 |
| 20260509142925 | 52 | 166 | 1.0 | 2.0 | 0.00 | 0.04 | 0.04 | 93 | 1007.4 |
| 20260509142422 | 52 | 125 | 2.0 | 3.0 | 0.00 | 0.04 | 0.04 | 93 | 1007.2 |
| 20260509141918 | 52 | 170 | 1.0 | 1.0 | 0.00 | 0.04 | 0.04 | 94 | 1007.4 |
| 20260509141415 | 52 | 152 | 2.0 | 2.0 | 0.00 | 0.04 | 0.04 | 94 | 1007.5 |
| 20260509140912 | 52 | 180 | 1.0 | 2.0 | 0.00 | 0.04 | 0.04 | 94 | 1007.4 |
| 20260509140408 | 52 | 190 | 0.0 | 1.0 | 0.00 | 0.04 | 0.04 | 95 | 1007.4 |
| 20260509135906 | 51 | 130 | 1.0 | 2.0 | 0.00 | 0.04 | 0.04 | 94 | 1007.6 |
| 20260509135403 | 51 | 152 | 2.0 | 2.0 | 0.00 | 0.04 | 0.04 | 94 | 1007.7 |
| 20260509134901 | 52 | 178 | 2.0 | 2.0 | 0.00 | 0.04 | 0.04 | 94 | 1007.4 |
| 20260509134358 | 52 | 182 | 0.0 | 1.0 | 0.00 | 0.04 | 0.04 | 94 | 1007.7 |
| 20260509133855 | 52 | 173 | 1.0 | 2.0 | 0.00 | 0.04 | 0.04 | 94 | 1007.8 |
| 20260509133351 | 52 | 126 | 0.0 | 0.0 | 0.00 | 0.04 | 0.04 | 93 | 1007.7 |
| 20260509132850 | 52 | 126 | 0.0 | 1.0 | 0.00 | 0.04 | 0.04 | 94 | 1007.4 |
| 20260509132348 | 51 | 126 | 0.0 | 0.0 | 0.00 | 0.04 | 0.04 | 94 | 1007.8 |
| 20260509131845 | 51 | 126 | 0.0 | 0.0 | 0.00 | 0.04 | 0.04 | 95 | 1007.8 |
| 20260509131341 | 51 | 126 | 2.0 | 3.0 | 0.00 | 0.04 | 0.04 | 93 | 1007.6 |
| 20260509130838 | 51 | 140 | 0.0 | 0.0 | 0.00 | 0.04 | 0.04 | 96 | 1007.7 |
| 20260509130334 | 50 | 139 | 0.0 | 1.0 | 0.00 | 0.04 | 0.04 | 97 | 1007.6 |
| 20260509125831 | 50 | 155 | 0.0 | 0.0 | 0.00 | 0.04 | 0.04 | 98 | 1007.6 |
| 20260509125327 | 50 | 170 | 0.0 | 2.0 | 0.00 | 0.04 | 0.04 | 98 | 1007.6 |
| 20260509124823 | 50 | 314 | 0.0 | 0.0 | 0.00 | 0.04 | 0.04 | 99 | 1007.8 |
| 20260509124320 | 49 | 315 | 0.0 | 1.0 | 0.07 | 0.04 | 0.04 | 99 | 1007.8 |
| 20260509123819 | 49 | 315 | 0.0 | 1.0 | 0.07 | 0.04 | 0.04 | 99 | 1007.8 |
| 20260509123316 | 49 | 315 | 1.0 | 1.0 | 0.00 | 0.03 | 0.03 | 99 | 1007.6 |
| 20260509122811 | 49 | 242 | 1.0 | 1.0 | 0.00 | 0.03 | 0.03 | 99 | 1007.7 |
| 20260509122308 | 49 | 239 | 0.0 | 1.0 | 0.05 | 0.03 | 0.03 | 99 | 1008.0 |
| 20260509121805 | 49 | 194 | 0.0 | 1.0 | 0.05 | 0.03 | 0.03 | 99 | 1007.9 |
| 20260509121302 | 49 | 270 | 0.0 | 0.0 | 0.00 | 0.02 | 0.02 | 99 | 1007.8 |
| 20260509120800 | 49 | 270 | 0.0 | 0.0 | 0.00 | 0.02 | 0.02 | 99 | 1007.9 |
| 20260509120258 | 49 | 270 | 1.0 | 1.0 | 0.00 | 0.02 | 0.02 | 99 | 1007.9 |
| 20260509115756 | 49 | 270 | 0.0 | 0.0 | 0.00 | 0.02 | 0.02 | 99 | 1007.9 |
| 20260509115252 | 49 | 270 | 0.0 | 2.0 | 0.00 | 0.02 | 0.02 | 99 | 1007.9 |
| 20260509114750 | 49 | 270 | 0.0 | 1.0 | 0.00 | 0.02 | 0.02 | 99 | 1008.0 |
| 20260509114249 | 49 | 270 | 0.0 | 0.0 | 0.00 | 0.02 | 0.02 | 98 | 1008.0 |
| 20260509113747 | 49 | 208 | 0.0 | 1.0 | 0.00 | 0.02 | 0.02 | 99 | 1008.0 |
| 20260509113244 | 49 | 278 | 0.0 | 0.0 | 0.00 | 0.02 | 0.02 | 99 | 1007.7 |
| 20260509112741 | 49 | 278 | 0.0 | 0.0 | 0.00 | 0.02 | 0.02 | 99 | 1007.6 |
| 20260509112238 | 49 | 278 | 0.0 | 0.0 | 0.00 | 0.02 | 0.02 | 99 | 1007.7 |
| 20260509111735 | 49 | 278 | 1.0 | 1.0 | 0.07 | 0.02 | 0.02 | 98 | 1007.6 |
| 20260509111232 | 49 | 277 | 0.0 | 1.0 | 0.07 | 0.02 | 0.02 | 98 | 1007.7 |
| 20260509110729 | 49 | 118 | 0.0 | 1.0 | 0.00 | 0.01 | 0.01 | 98 | 1007.7 |
| 20260509110226 | 49 | 277 | 0.0 | 0.0 | 0.00 | 0.01 | 0.01 | 98 | 1007.8 |
| 20260509105724 | 49 | 276 | 0.0 | 0.0 | 0.00 | 0.01 | 0.01 | 98 | 1007.9 |
| 20260509105221 | 49 | 274 | 0.0 | 0.0 | 0.00 | 0.01 | 0.01 | 98 | 1007.7 |
| 20260509104718 | 49 | 120 | 0.0 | 0.0 | 0.00 | 0.01 | 0.01 | 98 | 1007.8 |
| 20260509104215 | 49 | 120 | 0.0 | 0.0 | 0.00 | 0.01 | 0.01 | 97 | 1007.5 |
| 20260509103713 | 49 | 120 | 0.0 | 0.0 | 0.00 | 0.01 | 0.01 | 97 | 1007.8 |
| 20260509103210 | 49 | 119 | 0.0 | 1.0 | 0.00 | 0.01 | 0.01 | 97 | 1007.8 |
| 20260509102709 | 49 | 124 | 0.0 | 0.0 | 0.00 | 0.01 | 0.01 | 96 | 1007.9 |
| 20260509102205 | 49 | 123 | 0.0 | 1.0 | 0.00 | 0.01 | 0.01 | 96 | 1007.9 |
| 20260509101701 | 49 | 160 | 0.0 | 2.0 | 0.00 | 0.01 | 0.01 | 96 | 1007.7 |
| 20260509101158 | 49 | 155 | 0.0 | 2.0 | 0.00 | 0.01 | 0.01 | 95 | 1008.0 |
| 20260509100655 | 49 | 43 | 1.0 | 1.0 | 0.00 | 0.01 | 0.01 | 93 | 1007.6 |
| 20260509100152 | 50 | 43 | 1.0 | 1.0 | 0.05 | 0.01 | 0.01 | 92 | 1007.6 |
| 20260509095649 | 50 | 297 | 0.0 | 1.0 | 0.05 | 0.01 | 0.01 | 90 | 1007.5 |
| 20260509095146 | 50 | 313 | 0.0 | 2.0 | 0.00 | 0.00 | 0.00 | 89 | 1007.8 |
| 20260509094642 | 50 | 302 | 1.0 | 1.0 | 0.00 | 0.00 | 0.00 | 89 | 1007.8 |
| 20260509094140 | 51 | 303 | 1.0 | 3.0 | 0.00 | 0.00 | 0.00 | 87 | 1007.8 |
| 20260509093638 | 51 | 317 | 2.0 | 6.0 | 0.00 | 0.00 | 0.00 | 86 | 1007.9 |
| 20260509093135 | 51 | 318 | 3.0 | 7.0 | 0.00 | 0.00 | 0.00 | 85 | 1007.9 |
| 20260509092633 | 51 | 309 | 4.0 | 7.0 | 0.00 | 0.00 | 0.00 | 84 | 1008.1 |
| 20260509092131 | 52 | 302 | 4.0 | 8.0 | 0.00 | 0.00 | 0.00 | 81 | 1007.7 |
| 20260509091629 | 53 | 310 | 6.0 | 8.0 | 0.00 | 0.00 | 0.00 | 77 | 1007.7 |
| 20260509091125 | 53 | 311 | 3.0 | 6.0 | 0.00 | 0.00 | 0.00 | 76 | 1007.7 |
| 20260509090623 | 53 | 312 | 1.0 | 7.0 | 0.00 | 0.00 | 0.00 | 75 | 1007.5 |
| 20260509090120 | 53 | 311 | 7.0 | 9.0 | 0.00 | 0.00 | 0.00 | 74 | 1007.5 |
| 20260509085617 | 54 | 320 | 6.0 | 9.0 | 0.00 | 0.00 | 0.00 | 73 | 1007.7 |
| 20260509085113 | 54 | 272 | 2.0 | 9.0 | 0.00 | 0.00 | 0.00 | 71 | 1007.6 |
| 20260509084610 | 55 | 301 | 5.0 | 8.0 | 0.00 | 0.00 | 0.00 | 69 | 1007.8 |
| 20260509084107 | 55 | 296 | 4.0 | 8.0 | 0.00 | 0.00 | 0.00 | 66 | 1007.7 |
| 20260509083605 | 55 | 324 | 6.0 | 14.0 | 0.00 | 0.00 | 0.00 | 66 | 1007.7 |
| 20260509083101 | 55 | 301 | 5.0 | 6.0 | 0.00 | 0.00 | 0.00 | 67 | 1007.7 |
| 20260509082559 | 55 | 14 | 1.0 | 3.0 | 0.00 | 0.00 | 0.00 | 67 | 1007.5 |
| 20260509082055 | 55 | 280 | 4.0 | 6.0 | 0.00 | 0.00 | 0.00 | 67 | 1007.5 |
| 20260509081552 | 54 | 294 | 6.0 | 8.0 | 0.00 | 0.00 | 0.00 | 69 | 1007.6 |
| 20260509081049 | 53 | 182 | 0.0 | 4.0 | 0.00 | 0.00 | 0.00 | 74 | 1007.6 |
| 20260509080547 | 53 | 267 | 0.0 | 4.0 | 0.00 | 0.00 | 0.00 | 73 | 1007.6 |
| 20260509080045 | 53 | 256 | 2.0 | 3.0 | 0.00 | 0.00 | 0.00 | 71 | 1007.4 |
| 20260509075542 | 0 | 0.0 | 0.0 | 0.00 | 0.00 | 0.00 | 1007.2 | ||
| 20260509075040 | 0 | 0.0 | 0.0 | 0.00 | 0.00 | 0.00 | 1007.3 | ||
| 20260509074537 | 54 | 287 | 1.0 | 1.0 | 0.00 | 0.00 | 0.00 | 71 | 1007.4 |
| 20260509074033 | 54 | 287 | 1.0 | 1.0 | 0.00 | 0.00 | 0.00 | 71 | 1007.6 |
| 20260509073530 | 54 | 240 | 0.0 | 1.0 | 0.00 | 0.00 | 0.00 | 68 | 1007.6 |
| 20260509073026 | 55 | 162 | 1.0 | 4.0 | 0.00 | 0.00 | 0.00 | 68 | 1007.7 |
| 20260509072523 | 55 | 248 | 3.0 | 3.0 | 0.00 | 0.00 | 0.00 | 66 | 1007.7 |
| 20260509072020 | 53 | 217 | 1.0 | 4.0 | 0.00 | 0.00 | 0.00 | 67 | 1007.5 |
| 20260509071517 | 49 | 283 | 1.0 | 2.0 | 0.00 | 0.00 | 0.00 | 87 | 1007.3 |
| 20260509071014 | 48 | 248 | 2.0 | 2.0 | 0.00 | 0.00 | 0.00 | 85 | 1007.4 |
| 20260509070511 | 48 | 283 | 0.0 | 0.0 | 0.00 | 0.00 | 0.00 | 90 | 1007.2 |
| 20260509070008 | 48 | 283 | 0.0 | 0.0 | 0.00 | 0.00 | 0.00 | 90 | 1007.2 |
| 20260509065503 | 48 | 283 | 0.0 | 0.0 | 0.00 | 0.00 | 0.00 | 89 | 1007.2 |
| 20260509064959 | 48 | 283 | 0.0 | 0.0 | 0.00 | 0.00 | 0.00 | 89 | 1007.2 |
| 20260509064457 | 48 | 283 | 0.0 | 0.0 | 0.00 | 0.00 | 0.00 | 87 | 1007.0 |
| 20260509063955 | 48 | 283 | 0.0 | 0.0 | 0.00 | 0.00 | 0.00 | 89 | 1007.1 |
| 20260509063450 | 48 | 283 | 0.0 | 0.0 | 0.00 | 0.00 | 0.00 | 88 | 1007.0 |
| 20260509062948 | 48 | 283 | 0.0 | 0.0 | 0.00 | 0.00 | 0.00 | 89 | 1007.0 |
| 20260509062445 | 47 | 283 | 0.0 | 1.0 | 0.00 | 0.00 | 0.00 | 90 | 1006.9 |
| 20260509061942 | 47 | 283 | 0.0 | 0.0 | 0.00 | 0.00 | 0.00 | 91 | 1007.2 |
| 20260509061439 | 48 | 283 | 0.0 | 0.0 | 0.00 | 0.00 | 0.00 | 90 | 1007.1 |
| 20260509060936 | 48 | 283 | 0.0 | 0.0 | 0.00 | 0.00 | 0.00 | 90 | 1007.4 |
| 20260509060434 | 48 | 283 | 0.0 | 0.0 | 0.00 | 0.00 | 0.00 | 89 | 1007.3 |
| 20260509055929 | 48 | 283 | 0.0 | 0.0 | 0.00 | 0.00 | 0.00 | 90 | 1007.2 |
| 20260509055424 | 47 | 283 | 0.0 | 1.0 | 0.00 | 0.00 | 0.00 | 88 | 1007.3 |
| 20260509054921 | 48 | 283 | 0.0 | 1.0 | 0.00 | 0.00 | 0.00 | 87 | 1007.6 |
| 20260509054418 | 48 | 283 | 0.0 | 0.0 | 0.00 | 0.00 | 0.00 | 87 | 1007.6 |
| 20260509053917 | 48 | 283 | 1.0 | 2.0 | 0.00 | 0.00 | 0.00 | 88 | 1007.6 |
| 20260509053414 | 48 | 283 | 1.0 | 1.0 | 0.00 | 0.00 | 0.00 | 89 | 1007.6 |
| 20260509052906 | 48 | 283 | 0.0 | 1.0 | 0.00 | 0.00 | 0.00 | 88 | 1007.7 |
| 20260509052403 | 49 | 283 | 0.0 | 0.0 | 0.00 | 0.00 | 0.00 | 87 | 1007.8 |
| 20260509051901 | 48 | 283 | 1.0 | 1.0 | 0.00 | 0.00 | 0.00 | 88 | 1007.8 |
| 20260509051359 | 49 | 283 | 0.0 | 0.0 | 0.00 | 0.00 | 0.00 | 90 | 1007.7 |
| 20260509050855 | 49 | 283 | 0.0 | 0.0 | 0.00 | 0.00 | 0.00 | 90 | 1008.0 |
| 20260509050352 | 49 | 283 | 0.0 | 1.0 | 0.00 | 0.00 | 0.00 | 88 | 1007.8 |
| 20260509045848 | 49 | 283 | 1.0 | 1.0 | 0.00 | 0.00 | 0.00 | 89 | 1007.9 |
| 20260509045345 | 49 | 283 | 0.0 | 0.0 | 0.00 | 0.00 | 0.00 | 89 | 1008.0 |
| 20260509044843 | 49 | 283 | 0.0 | 0.0 | 0.00 | 0.00 | 0.00 | 87 | 1008.0 |
| 20260509044340 | 49 | 283 | 0.0 | 0.0 | 0.00 | 0.00 | 0.00 | 88 | 1007.9 |
| 20260509043836 | 49 | 283 | 0.0 | 0.0 | 0.00 | 0.00 | 0.00 | 88 | 1007.9 |
| 20260509043332 | 50 | 283 | 0.0 | 0.0 | 0.00 | 0.00 | 0.00 | 88 | 1008.5 |
| 20260509042828 | 50 | 283 | 0.0 | 0.0 | 0.00 | 0.00 | 0.00 | 88 | 1008.0 |
| 20260509042325 | 50 | 283 | 0.0 | 0.0 | 0.00 | 0.00 | 0.00 | 87 | 1008.1 |
| 20260509041822 | 50 | 283 | 0.0 | 0.0 | 0.00 | 0.00 | 0.00 | 88 | 1008.3 |
| 20260509041319 | 50 | 283 | 0.0 | 0.0 | 0.00 | 0.00 | 0.00 | 88 | 1008.1 |
| 20260509040817 | 50 | 283 | 0.0 | 0.0 | 0.00 | 0.00 | 0.00 | 87 | 1008.4 |
| 20260509040314 | 50 | 283 | 0.0 | 0.0 | 0.00 | 0.00 | 0.00 | 87 | 1008.1 |
| 20260509035811 | 50 | 283 | 0.0 | 0.0 | 0.00 | 0.00 | 0.00 | 87 | 1008.3 |
| 20260509035309 | 50 | 283 | 0.0 | 0.0 | 0.00 | 0.00 | 0.00 | 86 | 1008.4 |
| 20260509034804 | 50 | 283 | 0.0 | 0.0 | 0.00 | 0.00 | 0.00 | 86 | 1008.5 |
| 20260509034302 | 50 | 283 | 0.0 | 0.0 | 0.00 | 0.00 | 0.00 | 86 | 1008.4 |
| 20260509033759 | 50 | 283 | 0.0 | 0.0 | 0.00 | 0.00 | 0.00 | 85 | 1008.7 |
| 20260509033256 | 50 | 283 | 0.0 | 0.0 | 0.00 | 0.00 | 0.00 | 85 | 1008.3 |
| 20260509032753 | 50 | 283 | 0.0 | 0.0 | 0.00 | 0.00 | 0.00 | 86 | 1008.5 |
| 20260509032250 | 50 | 283 | 0.0 | 0.0 | 0.00 | 0.00 | 0.00 | 86 | 1008.4 |
| 20260509031747 | 50 | 283 | 0.0 | 0.0 | 0.00 | 0.00 | 0.00 | 86 | 1008.6 |
| 20260509031245 | 50 | 283 | 0.0 | 0.0 | 0.00 | 0.00 | 0.00 | 85 | 1008.6 |
| 20260509030743 | 50 | 283 | 0.0 | 0.0 | 0.00 | 0.00 | 0.00 | 85 | 1008.6 |
| 20260509030240 | 50 | 283 | 0.0 | 0.0 | 0.00 | 0.00 | 0.00 | 86 | 1008.6 |
| 20260509025737 | 51 | 283 | 0.0 | 0.0 | 0.00 | 0.00 | 0.00 | 84 | 1008.6 |
| 20260509025232 | 51 | 283 | 0.0 | 0.0 | 0.00 | 0.00 | 0.00 | 84 | 1008.8 |
| 20260509024728 | 51 | 283 | 0.0 | 0.0 | 0.00 | 0.00 | 0.00 | 85 | 1008.6 |
| 20260509024224 | 51 | 283 | 0.0 | 0.0 | 0.00 | 0.00 | 0.00 | 85 | 1008.8 |
| 20260509023721 | 51 | 283 | 0.0 | 0.0 | 0.00 | 0.00 | 0.00 | 84 | 1008.6 |
| 20260509023219 | 51 | 283 | 0.0 | 0.0 | 0.00 | 0.00 | 0.00 | 82 | 1008.6 |
| 20260509022714 | 51 | 283 | 0.0 | 0.0 | 0.00 | 0.00 | 0.00 | 82 | 1008.7 |